FW5380 Weather Reports


time (UTC)temp
C
wind
direction
speed
KPH
gust
KPH
rain 1hr
cm
rain 24hr
cm
rain mn
cm
humidity
%
barometer
mb
20260505211655 24 343 4.8 14.5 0.00 0.00 0.00 49 1015.5
20260505210106 23 324 4.8 11.3 0.00 0.00 0.00 49 1015.8
20260505204531 23 331 6.4 16.1 0.00 0.00 0.00 50 1015.9
20260505203033 23 314 6.4 14.5 0.00 0.00 0.00 51 1016.0
20260505201530 22 313 6.4 12.9 0.00 0.00 0.00 52 1016.0
20260505200031 22 331 6.4 14.5 0.00 0.00 0.00 53 1016.1
20260505194605 22 341 6.4 14.5 0.00 0.00 0.00 53 1016.2
20260505193030 22 334 4.8 12.9 0.00 0.00 0.00 53 1016.2
20260505191531 22 341 4.8 11.3 0.00 0.00 0.00 52 1016.3
20260505184529 22 334 4.8 14.5 0.00 0.00 0.00 55 1016.5
20260505183032 21 335 6.4 16.1 0.00 0.00 0.00 57 1016.5
20260505180146 21 318 6.4 14.5 0.00 0.00 0.00 59 1016.5
20260505173103 20 25 4.8 12.9 0.00 0.00 0.00 62 1016.5
20260505171646 20 29 3.2 9.7 0.00 0.00 0.00 62 1016.5
20260505170033 19 332 3.2 9.7 0.00 0.00 0.00 63 1016.4
20260505164529 18 11 1.6 9.7 0.00 0.00 0.00 64 1016.5
20260505163031 18 55 3.2 9.7 0.00 0.00 0.00 64 1016.5
20260505161530 18 49 1.6 8.0 0.00 0.00 0.00 66 1016.6
20260505151532 14 90 1.6 4.8 0.00 0.00 0.00 91 1016.2
20260505124530 8 157 0.0 3.2 0.00 0.00 0.00 92 1014.6
20260505123106 8 157 0.0 1.6 0.00 0.00 0.00 92 1014.6
20260505121529 8 157 0.0 1.6 0.00 0.00 0.00 92 1014.5
20260505120030 8 157 0.0 3.2 0.00 0.00 0.00 92 1014.5
20260505114528 8 157 0.0 3.2 0.00 0.00 0.00 91 1014.4
20260505113029 8 170 0.0 3.2 0.00 0.00 0.00 91 1014.3
20260505111531 8 180 0.0 3.2 0.00 0.00 0.00 91 1014.2
20260505100031 10 179 1.6 6.4 0.00 0.00 0.00 89 1013.8
20260505094530 10 180 1.6 4.8 0.00 0.00 0.00 89 1013.7
20260505093033 10 180 1.6 6.4 0.00 0.00 0.00 88 1013.7
20260505091531 10 180 3.2 6.4 0.00 0.00 0.00 87 1013.6
20260505090030 11 180 1.6 6.4 0.00 0.00 0.00 86 1013.4
20260505084533 11 180 3.2 6.4 0.00 0.00 0.00 85 1013.5
20260505083030 11 172 1.6 4.8 0.00 0.00 0.00 84 1013.5
20260505081532 12 214 1.6 6.4 0.00 0.00 0.00 84 1013.4
20260505080028 11 168 4.8 8.0 0.00 0.00 0.00 83 1013.5
20260505074531 12 180 1.6 6.4 0.00 0.00 0.00 82 1013.4
20260505073143 12 184 3.2 6.4 0.00 0.00 0.00 81 1013.2
20260505071532 12 180 4.8 8.0 0.00 0.00 0.00 80 1013.2
20260505070030 12 178 3.2 4.8 0.00 0.00 0.00 78 1013.1
20260505064532 12 227 0.0 4.8 0.00 0.00 0.00 77 1013.1
20260505063146 13 173 3.2 6.4 0.00 0.00 0.00 76 1013.1
20260505061608 13 180 1.6 6.4 0.00 0.00 0.00 73 1013.0
20260505060030 14 162 0.0 4.8 0.00 0.00 0.00 71 1013.0
20260505054603 14 169 4.8 8.0 0.00 0.00 0.00 70 1012.9
20260505053031 15 174 4.8 6.4 0.00 0.00 0.00 68 1012.8
20260505051535 15 180 3.2 6.4 0.00 0.00 0.00 64 1012.7
20260505041530 17 215 3.2 8.0 0.00 0.00 0.00 59 1012.2
20260505040043 17 207 3.2 8.0 0.00 0.00 0.00 58 1012.0
20260505033030 18 193 3.2 6.4 0.00 0.00 0.00 52 1011.6
20260505031529 20 262 0.0 8.0 0.00 0.00 0.00 47 1011.3
20260505024531 22 292 3.2 14.5 0.00 0.00 0.00 42 1010.9
20260505023031 23 296 9.7 24.1 0.00 0.00 0.00 40 1010.8
20260505021530 23 304 8.0 22.5 0.00 0.00 0.00 39 1010.8
20260505014531 25 308 11.3 32.2 0.00 0.00 0.00 36 1010.7
20260505013031 25 307 9.7 25.7 0.00 0.00 0.00 36 1010.6
20260505011608 26 304 11.3 22.5 0.00 0.00 0.00 36 1010.6
20260505010033 26 304 9.7 22.5 0.00 0.00 0.00 39 1010.6
20260505004646 26 325 9.7 19.3 0.00 0.00 0.00 43 1010.7
20260505003031 26 336 12.9 22.5 0.00 0.00 0.00 42 1010.6
20260505001529 26 336 11.3 24.1 0.00 0.00 0.00 41 1010.6
20260504234532 27 351 9.7 20.9 0.00 0.00 0.00 42 1010.6
20260504231531 27 347 9.7 19.3 0.00 0.00 0.00 41 1010.9
20260504230030 27 353 9.7 19.3 0.00 0.00 0.00 40 1011.0
20260504224532 27 342 11.3 22.5 0.00 0.00 0.00 38 1011.2
20260504221606 27 328 9.7 24.1 0.00 0.00 0.00 36 1011.5
20260504220032 27 321 6.4 20.9 0.00 0.00 0.00 35 1011.6
20260504214531 28 313 6.4 12.9 0.00 0.00 0.00 34 1011.8
20260504213031 27 322 6.4 14.5 0.00 0.00 0.00 35 1011.9